• Em Portugal
  • Lista de países
  • Para 7 dias
  • Temperatura da água
  • Mapas de satélite
  • Mapa do tempo
  • Widgets de tempo
  • user-avatar
    Iniciar Sessão

    Previsão horária em Roscino

    Hoje, 18 Agosto, Sábado

    Tempo Temperatura Precipitação Vento Pressão Humidade
    00:00 +19°C° 0,3 mm 3 m/s 761 mmHg 90%
    01:00 +19°C° 0,3 mm 2 m/s 761 mmHg 93%
    02:00 +19°C° 0 mm 3 m/s 761 mmHg 93%
    03:00 +19°C° 0 mm 3 m/s 761 mmHg 94%
    04:00 +18°C° 0 mm 3 m/s 762 mmHg 95%
    05:00 +19°C° 0,1 mm 3 m/s 762 mmHg 92%
    06:00 +20°C° 0,1 mm 3 m/s 762 mmHg 88%
    07:00 +20°C° 0,1 mm 3 m/s 762 mmHg 85%
    08:00 +21°C° 0 mm 3 m/s 763 mmHg 77%
    09:00 +22°C° 0 mm 3 m/s 763 mmHg 70%
    10:00 +24°C° 0 mm 3 m/s 763 mmHg 63%
    11:00 +24°C° 0 mm 3 m/s 763 mmHg 60%
    12:00 +25°C° 0 mm 3 m/s 763 mmHg 57%
    13:00 +25°C° 0 mm 3 m/s 763 mmHg 55%
    14:00 +25°C° 0 mm 3 m/s 763 mmHg 54%
    15:00 +25°C° 0 mm 3 m/s 763 mmHg 53%
    16:00 +25°C° 0 mm 3 m/s 763 mmHg 52%
    17:00 +23°C° 0 mm 2 m/s 763 mmHg 57%
    18:00 +21°C° 0 mm 2 m/s 763 mmHg 62%
    19:00 +20°C° 0 mm 2 m/s 763 mmHg 68%
    20:00 +19°C° 0 mm 2 m/s 763 mmHg 69%
    21:00 +18°C° 0 mm 2 m/s 763 mmHg 71%
    22:00 +17°C° 0 mm 2 m/s 763 mmHg 73%
    23:00 +17°C° 0 mm 2 m/s 764 mmHg 73%

    Amanhã, 19 Agosto, Domingo

    Tempo Temperatura Precipitação Vento Pressão Humidade
    00:00 +17°C° 0 mm 3 m/s 764 mmHg 73%
    01:00 +17°C° 0 mm 3 m/s 764 mmHg 73%
    02:00 +17°C° 0 mm 3 m/s 763 mmHg 73%
    03:00 +16°C° 0 mm 3 m/s 763 mmHg 74%
    04:00 +16°C° 0 mm 3 m/s 763 mmHg 74%
    05:00 +17°C° 0 mm 3 m/s 763 mmHg 72%
    06:00 +18°C° 0 mm 3 m/s 764 mmHg 69%
    07:00 +19°C° 0 mm 3 m/s 764 mmHg 67%
    08:00 +21°C° 0 mm 4 m/s 764 mmHg 63%
    09:00 +22°C° 0 mm 4 m/s 764 mmHg 60%
    10:00 +25°C° 0 mm 4 m/s 764 mmHg 57%
    11:00 +25°C° 0 mm 4 m/s 764 mmHg 56%
    12:00 +26°C° 0 mm 4 m/s 763 mmHg 55%
    13:00 +27°C° 0 mm 4 m/s 763 mmHg 54%
    14:00 +26°C° 0 mm 4 m/s 763 mmHg 55%
    15:00 +26°C° 0 mm 3 m/s 763 mmHg 55%
    16:00 +26°C° 0 mm 3 m/s 762 mmHg 56%
    17:00 +25°C° 0 mm 2 m/s 762 mmHg 62%
    18:00 +23°C° 0 mm 2 m/s 762 mmHg 69%
    19:00 +22°C° 0 mm 1 m/s 762 mmHg 75%
    20:00 +21°C° 0 mm 1 m/s 762 mmHg 77%
    21:00 +20°C° 0 mm 1 m/s 762 mmHg 80%
    22:00 +20°C° 0 mm 1 m/s 762 mmHg 82%
    23:00 +20°C° 0 mm 1 m/s 762 mmHg 82%

    Depois de amanhã, 20 Agosto, Segunda-feira

    Tempo Temperatura Precipitação Vento Pressão Humidade
    00:00 +20°C° 0 mm 1 m/s 762 mmHg 82%
    01:00 +19°C° 0 mm 2 m/s 762 mmHg 82%
    02:00 +18°C° 0 mm 2 m/s 761 mmHg 83%
    03:00 +18°C° 0 mm 2 m/s 761 mmHg 84%
    04:00 +18°C° 0 mm 2 m/s 761 mmHg 85%
    05:00 +19°C° 0 mm 2 m/s 761 mmHg 82%
    06:00 +20°C° 0 mm 2 m/s 761 mmHg 79%
    07:00 +21°C° 0 mm 2 m/s 761 mmHg 76%
    08:00 +22°C° 0 mm 3 m/s 761 mmHg 70%
    09:00 +25°C° 0 mm 3 m/s 761 mmHg 64%
    10:00 +26°C° 0 mm 3 m/s 761 mmHg 58%
    11:00 +27°C° 0 mm 3 m/s 760 mmHg 55%
    12:00 +28°C° 0 mm 4 m/s 760 mmHg 53%
    13:00 +28°C° 0 mm 4 m/s 760 mmHg 50%
    14:00 +28°C° 0 mm 3 m/s 760 mmHg 52%
    15:00 +27°C° 0 mm 3 m/s 759 mmHg 54%
    16:00 +27°C° 0 mm 3 m/s 759 mmHg 55%
    17:00 +25°C° 0,1 mm 2 m/s 759 mmHg 63%
    18:00 +24°C° 0,1 mm 2 m/s 759 mmHg 70%
    19:00 +21°C° 0,1 mm 2 m/s 759 mmHg 78%
    20:00 +21°C° 0 mm 2 m/s 759 mmHg 80%
    21:00 +20°C° 0 mm 2 m/s 759 mmHg 81%
    22:00 +19°C° 0 mm 2 m/s 759 mmHg 83%
    23:00 +19°C° 0 mm 3 m/s 759 mmHg 86%

    21 Agosto, Terça-feira

    Tempo Temperatura Precipitação Vento Pressão Humidade
    00:00 +19°C° 0 mm 3 m/s 759 mmHg 89%
    01:00 +18°C° 0 mm 3 m/s 759 mmHg 91%
    02:00 +18°C° 0 mm 4 m/s 759 mmHg 92%
    03:00 +18°C° 0 mm 4 m/s 759 mmHg 93%
    04:00 +17°C° 0 mm 4 m/s 759 mmHg 94%
    05:00 +18°C° 0 mm 4 m/s 759 mmHg 89%
    06:00 +17°C° 0 mm 5 m/s 760 mmHg 84%
    07:00 +19°C° 0 mm 5 m/s 760 mmHg 79%
    08:00 +20°C° 0 mm 5 m/s 760 mmHg 73%
    09:00 +21°C° 0 mm 5 m/s 760 mmHg 67%
    10:00 +22°C° 0 mm 5 m/s 760 mmHg 61%
    11:00 +22°C° 0 mm 5 m/s 760 mmHg 59%
    12:00 +23°C° 0 mm 5 m/s 760 mmHg 57%
    13:00 +25°C° 0 mm 5 m/s 760 mmHg 55%
    14:00 +25°C° 0 mm 5 m/s 760 mmHg 56%
    15:00 +25°C° 0 mm 4 m/s 760 mmHg 57%
    16:00 +25°C° 0 mm 4 m/s 760 mmHg 59%
    17:00 +24°C° 0 mm 3 m/s 760 mmHg 64%
    18:00 +22°C° 0 mm 3 m/s 760 mmHg 70%
    19:00 +21°C° 0 mm 2 m/s 760 mmHg 76%
    20:00 +21°C° 0 mm 2 m/s 760 mmHg 79%
    21:00 +20°C° 0 mm 2 m/s 760 mmHg 82%
    22:00 +19°C° 0 mm 2 m/s 760 mmHg 84%
    23:00 +19°C° 0 mm 3 m/s 760 mmHg 86%

    22 Agosto, Quarta-feira

    Tempo Temperatura Precipitação Vento Pressão Humidade
    00:00 +18°C° 0 mm 3 m/s 760 mmHg 88%
    01:00 +18°C° 0 mm 3 m/s 760 mmHg 90%
    02:00 +18°C° 0 mm 3 m/s 760 mmHg 89%
    03:00 +18°C° 0 mm 3 m/s 760 mmHg 89%
    04:00 +18°C° 0 mm 4 m/s 760 mmHg 89%
    05:00 +19°C° 0 mm 4 m/s 760 mmHg 85%
    06:00 +19°C° 0 mm 4 m/s 760 mmHg 81%
    07:00 +20°C° 0 mm 4 m/s 760 mmHg 78%
    08:00 +20°C° 0 mm 5 m/s 760 mmHg 73%
    09:00 +21°C° 0 mm 5 m/s 760 mmHg 68%
    10:00 +22°C° 0 mm 6 m/s 760 mmHg 63%
    11:00 +22°C° 0 mm 6 m/s 760 mmHg 63%
    12:00 +22°C° 0 mm 6 m/s 760 mmHg 64%
    13:00 +22°C° 0 mm 6 m/s 760 mmHg 65%
    14:00 +23°C° 0 mm 6 m/s 760 mmHg 63%
    15:00 +23°C° 0 mm 6 m/s 760 mmHg 62%
    16:00 +23°C° 0 mm 6 m/s 760 mmHg 61%
    17:00 +22°C° 0 mm 5 m/s 760 mmHg 67%
    18:00 +20°C° 0 mm 4 m/s 760 mmHg 73%
    19:00 +19°C° 0 mm 4 m/s 761 mmHg 79%
    20:00 +18°C° 0 mm 3 m/s 761 mmHg 82%
    21:00 +17°C° 0 mm 3 m/s 761 mmHg 85%
    22:00 +16°C° 0 mm 3 m/s 762 mmHg 89%
    23:00 +16°C° 0 mm 3 m/s 762 mmHg 89%

    23 Agosto, Quinta-feira

    Tempo Temperatura Precipitação Vento Pressão Humidade
    00:00 +16°C° 0 mm 3 m/s 762 mmHg 89%
    01:00 +14°C° 0 mm 3 m/s 762 mmHg 89%
    02:00 +14°C° 0 mm 3 m/s 762 mmHg 89%
    03:00 +15°C° 0 mm 2 m/s 762 mmHg 89%
    04:00 +14°C° 0 mm 2 m/s 762 mmHg 89%
    05:00 +15°C° 0 mm 2 m/s 763 mmHg 84%
    06:00 +17°C° 0 mm 2 m/s 763 mmHg 79%
    07:00 +18°C° 0 mm 2 m/s 763 mmHg 74%
    08:00 +19°C° 0 mm 2 m/s 763 mmHg 68%
    09:00 +20°C° 0 mm 2 m/s 763 mmHg 62%
    10:00 +20°C° 0 mm 2 m/s 763 mmHg 57%
    11:00 +21°C° 0 mm 2 m/s 763 mmHg 55%
    12:00 +21°C° 0 mm 2 m/s 763 mmHg 53%
    13:00 +21°C° 0 mm 2 m/s 763 mmHg 52%
    14:00 +21°C° 0 mm 2 m/s 762 mmHg 51%
    15:00 +23°C° 0 mm 2 m/s 762 mmHg 51%
    16:00 +23°C° 0 mm 2 m/s 762 mmHg 50%
    17:00 +20°C° 0 mm 2 m/s 762 mmHg 57%
    18:00 +19°C° 0 mm 2 m/s 762 mmHg 64%
    19:00 +17°C° 0 mm 2 m/s 762 mmHg 71%
    20:00 +16°C° 0 mm 2 m/s 761 mmHg 73%
    21:00 +16°C° 0 mm 3 m/s 761 mmHg 76%
    22:00 +14°C° 0 mm 3 m/s 761 mmHg 79%
    23:00 +14°C° 0 mm 3 m/s 761 mmHg 79%
    Mostrar mais